This is the latest recevied weather packets stored in our database for station/object IR1CH-3. If no packets are shown the sender has not sent any weather packets the latest 10 day(s).
| Time | Temp. | Humidity | Pressure | Rain* | Wind** | Luminosity | Snow |
|---|---|---|---|---|---|---|---|
| 1777529433 | 17.78° C | 58% | 1017.5 hPa | - | - | - | - |
| 1777527633 | 17.78° C | 61% | 1017.3 hPa | - | - | - | - |
| 1777525832 | 17.22° C | 69% | 1017.1 hPa | - | - | - | - |
| 1777524032 | 16.67° C | 73% | 1017.1 hPa | - | - | - | - |
| 1777522231 | 17.22° C | 75% | 1016.8 hPa | - | - | - | - |
| 1777520431 | 17.22° C | 78% | 1016.7 hPa | - | - | - | - |
| 1777518631 | 17.22° C | 84% | 1016.6 hPa | - | - | - | - |
| 1777516831 | 17.22° C | 89% | 1016.4 hPa | - | - | - | - |
| 1777515030 | 16.67° C | 92% | 1016.3 hPa | - | - | - | - |
| 1777513230 | 16.67° C | 87% | 1016 hPa | - | - | - | - |
| 1777511430 | 16.67° C | 83% | 1015.9 hPa | - | - | - | - |
| 1777509629 | 17.22° C | 75% | 1016 hPa | - | - | - | - |
| 1777507829 | 16.67° C | 75% | 1016 hPa | - | - | - | - |
| 1777506029 | 17.22° C | 76% | 1016 hPa | - | - | - | - |
| 1777504228 | 17.22° C | 75% | 1015.9 hPa | - | - | - | - |
| 1777502428 | 17.22° C | 66% | 1015.8 hPa | - | - | - | - |
| 1777500628 | 17.22° C | 69% | 1015.7 hPa | - | - | - | - |
| 1777498827 | 17.22° C | 65% | 1015.6 hPa | - | - | - | - |
| 1777497027 | 17.22° C | 56% | 1015.4 hPa | - | - | - | - |
| 1777495227 | 17.78° C | 54% | 1015.2 hPa | - | - | - | - |
| 1777493426 | 17.78° C | 51% | 1015 hPa | - | - | - | - |
| 1777491626 | 19.44° C | 52% | 1014.6 hPa | - | - | - | - |
| 1777489826 | 19.44° C | 51% | 1014.5 hPa | - | - | - | - |
| 1777488025 | 18.33° C | 49% | 1014.4 hPa | - | - | - | - |
| 1777486225 | 20° C | 47% | 1014.2 hPa | - | - | - | - |
* Rain since midnight (hover to see other rain measurements)
** Current wind speed in m/s (hover to see current wind gust speed)